Pittsfield, MA

11:32 AM EDT on October 19, 2019 (GMT -0400)
Pittsfield Municipal

Weather History for KPSF - August, 2019

Change the Weather History Date:

Saturday, August 24, 2019

  Actual Average Record
Temperature  
Mean Temperature 60 °F 66 °F  
Max Temperature 73 °F 76 °F 91 °F (1935)
Min Temperature 46 °F 55 °F 44 °F (1957)
Degree Days  
Heating Degree Days 6 2  
Month to date heating degree days 8 27  
Since 1 June heating degree days 75 159  
Since 1 July heating degree days 8 58  
Cooling Degree Days 0 2  
Month to date cooling degree days 109 82  
Year to date cooling degree days 385 259  
Since 1 June cooling degree days 379 246  
Growing Degree Days 10 (Base 50)    
Moisture  
Dew Point 50 °F    
Average Humidity 82    
Maximum Humidity 100    
Minimum Humidity 49    
Precipitation  
Precipitation 0.00 in 0.13 in 0.90 in (1945)
Month to date precipitation 1.62 3.24  
Year to date precipitation 27.76 28.93  
Sea Level Pressure  
Sea Level Pressure 30.16 in    
Wind  
Wind Speed 1 mph ()    
Max Wind Speed 12 mph    
Max Gust Speed 17 mph    
Visibility 6.1 miles    
Events Fog    
T = Trace of Precipitation, MM = Missing Value Source: Averaged Metar Reports

Daily Weather History Graph

Daily Weather History Graph

Search for Another Location

Airport or City:

Astronomy

Aug. 24, 2019 Rise Set
Actual Time 6:09 AM EDT 7:40 PM EDT
Civil Twilight 5:39 AM EDT 8:10 PM EDT
Nautical Twilight 5:04 AM EDT 8:45 PM EDT
Astronomical Twilight 4:26 AM EDT 9:23 PM EDT
Moon No Moon Rise 2:56 PM EDT (8/24)
Length of Visible Light 14h 30m
Length of Day
13h 31m
Last Quarter, 39% of the Moon is Illuminated
Aug 24
Last Quarter
Aug 30
New
Sep 5
First Quarter
Sep 14
Full
Sep 21
Last Quarter

Hourly Weather History & Observations

Time (EDT) Temp. Dew Point Humidity Pressure Visibility Wind Dir Wind Speed Gust Speed Precip Events Conditions
12:54 AM 54.0 °F 52.0 °F 93% 30.06 in 10.0 mi Calm Calm - N/A   Clear
1:54 AM 55.0 °F 52.0 °F 89% 30.07 in 10.0 mi SW 4.6 mph - N/A   Clear
2:54 AM 50.0 °F 46.9 °F 89% 30.08 in 7.0 mi Calm Calm - N/A   Clear
3:04 AM 50.0 °F 48.0 °F 93% 30.12 in 2.5 mi Calm Calm - N/A   Clear
3:35 AM 50.0 °F 48.0 °F 93% 30.13 in 10.0 mi Calm Calm - N/A   Scattered Clouds
3:54 AM 51.1 °F 48.0 °F 89% 30.09 in 10.0 mi Calm Calm - N/A   Mostly Cloudy
4:27 AM 50.0 °F 48.0 °F 93% 30.14 in 10.0 mi Calm Calm - N/A   Scattered Clouds
4:35 AM 48.9 °F 46.9 °F 93% 30.14 in 1.2 mi Calm Calm - N/A   Scattered Clouds
4:42 AM 48.9 °F 46.9 °F 93% 30.14 in 0.5 mi Calm Calm - N/A Fog Fog
4:52 AM 48.2 °F 46.4 °F 93% 30.14 in 1.0 mi Calm Calm - N/A   Mist
4:54 AM 48.9 °F 46.9 °F 93% 30.09 in 0.8 mi Calm Calm - N/A   Mist
5:12 AM 48.9 °F 46.0 °F 90% 30.14 in 0.5 mi Calm Calm - N/A Fog Fog
5:27 AM 48.0 °F 46.9 °F 96% 30.14 in 0.8 mi Calm Calm - N/A   Mist
5:54 AM 48.0 °F 45.0 °F 89% 30.11 in 0.5 mi Calm Calm - N/A Fog Fog
6:08 AM 48.0 °F 46.0 °F 93% 30.16 in 0.2 mi Calm Calm - N/A Fog Fog
6:19 AM 46.0 °F 45.0 °F 96% 30.16 in 1.0 mi Calm Calm - N/A   Overcast
6:31 AM 48.0 °F 46.9 °F 96% 30.17 in 0.2 mi Calm Calm - N/A Fog Fog
6:39 AM 48.9 °F 48.0 °F 97% 30.17 in 0.2 mi Calm Calm - N/A Fog Fog
6:44 AM 48.9 °F 48.0 °F 97% 30.17 in 0.5 mi Calm Calm - N/A Fog Fog
6:54 AM 48.9 °F 46.9 °F 93% 30.13 in 0.2 mi Calm Calm - N/A Fog Fog
7:54 AM 52.0 °F 51.1 °F 97% 30.15 in 1.2 mi Calm Calm - N/A   Mostly Cloudy
8:06 AM 53.1 °F 51.1 °F 93% 30.19 in 3.0 mi North 3.5 mph - N/A   Mostly Cloudy
8:19 AM 53.1 °F 51.1 °F 93% 30.20 in 1.2 mi NE 4.6 mph - N/A   Mostly Cloudy
8:33 AM 54.0 °F 52.0 °F 93% 30.19 in 3.0 mi Calm Calm - N/A   Mostly Cloudy
8:45 AM 55.0 °F 52.0 °F 89% 30.19 in 10.0 mi Calm Calm - N/A   Scattered Clouds
8:54 AM 55.9 °F 52.0 °F 87% 30.15 in 10.0 mi Calm Calm - N/A   Partly Cloudy
9:54 AM 64.9 °F 52.0 °F 63% 30.15 in 10.0 mi North - - N/A   Clear
10:54 AM 66.0 °F 48.9 °F 54% 30.15 in 10.0 mi North 10.4 mph - N/A   Partly Cloudy
11:54 AM 66.0 °F 50.0 °F 56% 30.15 in 10.0 mi NNW 8.1 mph - N/A   Scattered Clouds
12:54 PM 70.0 °F 53.1 °F 55% 30.14 in 10.0 mi NNW 9.2 mph - N/A   Scattered Clouds
1:54 PM 72.0 °F 52.0 °F 49% 30.13 in 10.0 mi Variable 3.5 mph - N/A   Scattered Clouds
2:54 PM 73.0 °F 53.1 °F 49% 30.14 in 10.0 mi Variable 6.9 mph - N/A   Mostly Cloudy
3:54 PM 71.1 °F 54.0 °F 55% 30.14 in 10.0 mi North 8.1 mph - N/A   Overcast
4:54 PM 69.1 °F 54.0 °F 58% 30.15 in 10.0 mi NNE 6.9 mph - N/A   Overcast
5:54 PM 68.0 °F 54.0 °F 61% 30.17 in 10.0 mi NNE 5.8 mph - N/A   Overcast
6:54 PM 66.9 °F 55.0 °F 66% 30.18 in 10.0 mi NNE 6.9 mph - N/A   Overcast
7:54 PM 64.9 °F 55.0 °F 70% 30.19 in 10.0 mi NE 4.6 mph - N/A   Overcast
8:54 PM 63.0 °F 55.0 °F 75% 30.21 in 10.0 mi Calm Calm - N/A   Overcast
9:54 PM 63.0 °F 57.0 °F 81% 30.22 in 10.0 mi Calm Calm - N/A   Overcast
10:54 PM 64.0 °F 55.9 °F 75% 30.24 in 10.0 mi Calm Calm - N/A   Overcast
11:14 PM 64.0 °F 55.0 °F 73% 30.30 in 10.0 mi Calm Calm - N/A   Overcast
11:54 PM 64.0 °F 55.0 °F 73% 30.24 in 10.0 mi East 3.5 mph - N/A   Overcast